Dryden, TX

1:16 PM CST on December 14, 2017 (GMT -0600)
Dryden

Weather History for K6R6 - June, 2014

Change the Weather History Date:

Wednesday, June 4, 2014

  Actual Average (KFST) Record (KFST)
Temperature  
Mean Temperature 87 °F -  
Max Temperature 104 °F 92 °F 108 °F (2008)
Min Temperature 72 °F 66 °F 57 °F (2007)
Cooling Degree Days 22    
Growing Degree Days 37 (Base 50)    
Moisture  
Dew Point 61 °F    
Average Humidity 42    
Maximum Humidity 73    
Minimum Humidity 18    
Precipitation  
Precipitation 0.00 in - - ()
Sea Level Pressure  
Sea Level Pressure 29.73 in    
Wind  
Wind Speed 10 mph (ESE)    
Max Wind Speed 21 mph    
Max Gust Speed 29 mph    
Averages and records for this station are not official NWS values.
T = Trace of Precipitation, MM = Missing Value Source: NWS Daily Summary

Daily Weather History Graph

Daily Weather History Graph

Search for Another Location

Airport or City:

Trip Planner

Search our weather history database for the weather conditions in past years. The results will help you decide how hot, cold, wet, or windy it might be!

Date:

Astronomy

Jun. 04, 2014 Rise Set
Actual Time 6:47 AM CDT 8:47 PM CDT
Civil Twilight 6:20 AM CDT 9:14 PM CDT
Nautical Twilight 5:47 AM CDT 9:47 PM CDT
Astronomical Twilight 5:12 AM CDT 10:22 PM CDT
Moon 12:49 PM CDT (6/4) 1:04 AM CDT (6/4)
Length of Visible Light 14h 53m
Length of Day
13h 59m
Waxing Crescent, 39% of the Moon is Illuminated
Jun 4
Waxing Crescent
Jun 5
First Quarter
Jun 12
Full
Jun 19
Last Quarter
Jun 27
New

Hourly Weather History & Observations

Time (CDT) Temp. Heat Index Dew Point Humidity Pressure Visibility Wind Dir Wind Speed Gust Speed Precip Events Conditions
12:53 AM 84.9 °F 85.4 °F 62.1 °F 46% 29.79 in - ESE 12.7 mph - N/A   Unknown
1:53 AM 84.0 °F 84.5 °F 62.1 °F 47% 29.78 in - ESE 10.4 mph - N/A   Unknown
2:53 AM 80.1 °F 81.2 °F 62.1 °F 54% 29.76 in - ESE 5.8 mph - N/A   Unknown
3:53 AM 78.1 °F - 63.0 °F 60% 29.75 in - SE 3.5 mph - N/A   Unknown
4:53 AM 75.0 °F - 63.0 °F 66% 29.74 in - East 3.5 mph - N/A   Unknown
5:53 AM 73.0 °F - 63.0 °F 71% 29.74 in - East 4.6 mph - N/A   Unknown
6:53 AM 72.0 °F - 63.0 °F 73% 29.75 in - NE 4.6 mph - N/A   Unknown
7:53 AM 77.0 °F - 64.9 °F 66% 29.76 in - NE 3.5 mph - N/A   Unknown
8:53 AM 81.0 °F 83.3 °F 66.9 °F 62% 29.78 in - ESE 9.2 mph - N/A   Unknown
9:53 AM 86.0 °F 88.2 °F 66.0 °F 51% 29.78 in - Variable 5.8 mph - N/A   Unknown
10:53 AM 89.1 °F 90.3 °F 64.0 °F 43% 29.78 in - ESE 8.1 mph - N/A   Unknown
11:53 AM 93.0 °F 94.6 °F 64.0 °F 38% 29.76 in - ESE 9.2 mph - N/A   Unknown
12:53 PM 95.0 °F 95.6 °F 62.1 °F 33% 29.74 in - ESE 6.9 mph 17.3 mph N/A   Unknown
1:53 PM 98.1 °F 97.7 °F 59.0 °F 27% 29.73 in - ESE 8.1 mph 19.6 mph N/A   Unknown
2:53 PM 100.9 °F 102.1 °F 61.0 °F 27% 29.70 in - SE 18.4 mph 21.9 mph N/A   Unknown
3:53 PM 102.0 °F 101.1 °F 57.0 °F 22% 29.68 in - ESE 15.0 mph 28.8 mph N/A   Unknown
4:53 PM 102.9 °F 100.9 °F 53.1 °F 19% 29.67 in - SE 15.0 mph 25.3 mph N/A   Unknown
5:53 PM 102.9 °F - 52.0 °F 18% 29.66 in - ESE 20.7 mph 27.6 mph N/A   Unknown
6:53 PM 100.0 °F - 51.1 °F 19% 29.66 in - ESE 17.3 mph 28.8 mph N/A   Unknown
7:53 PM 96.1 °F 94.8 °F 57.0 °F 27% 29.66 in - ESE 17.3 mph 27.6 mph N/A   Unknown
8:53 PM 93.0 °F 92.3 °F 59.0 °F 32% 29.68 in - ESE 13.8 mph 23.0 mph N/A   Unknown
9:53 PM 90.0 °F 89.1 °F 59.0 °F 35% 29.68 in - ESE 18.4 mph - N/A   Unknown
10:53 PM 89.1 °F 88.2 °F 59.0 °F 36% 29.70 in - ESE 16.1 mph 28.8 mph N/A   Unknown
11:53 PM 88.0 °F 87.9 °F 61.0 °F 40% 29.71 in - ESE 17.3 mph 24.2 mph N/A   Unknown